When you browse on this site, cookies collect data to enhance your experience and personalize the content and advertising you see.
Visit our Privacy Policy to learn more. By continuing to use the site, you agree to this use of cookies and data.
  • In Latvia
  • List of Countries
  • For 7 days
  • Water Temperature
  • Weather Map
  • Weather Widgets
  • user-avatar
    Login

    Hourly Weather Levinka

    Today, 21 August, Wednesday

    Time Temperature Precipitation Wind Pressure Humidity
    00:00 +18°C° 0 mm 0 mps 747 mmHg 73%
    01:00 +18°C° 0 mm 0 mps 747 mmHg 75%
    02:00 +18°C° 0 mm 0 mps 747 mmHg 76%
    03:00 +17°C° 0 mm 0 mps 748 mmHg 79%
    04:00 +17°C° 0 mm 0 mps 748 mmHg 80%
    05:00 +17°C° 0 mm 0 mps 748 mmHg 81%
    06:00 +17°C° 0 mm 0 mps 748 mmHg 81%
    07:00 +21°C° 0 mm 1 mps 748 mmHg 77%
    08:00 +22°C° 0 mm 1 mps 748 mmHg 73%
    09:00 +24°C° 0 mm 1 mps 748 mmHg 68%
    10:00 +25°C° 0 mm 1 mps 748 mmHg 65%
    11:00 +26°C° 0 mm 1 mps 748 mmHg 62%
    12:00 +27°C° 0 mm 1 mps 748 mmHg 59%
    13:00 +27°C° 0 mm 1 mps 748 mmHg 57%
    14:00 +28°C° 0 mm 1 mps 748 mmHg 56%
    15:00 +28°C° 0 mm 1 mps 748 mmHg 54%
    16:00 +28°C° 0 mm 1 mps 747 mmHg 58%
    17:00 +28°C° 0 mm 1 mps 747 mmHg 61%
    18:00 +27°C° 0 mm 1 mps 747 mmHg 65%
    19:00 +26°C° 0 mm 1 mps 747 mmHg 68%
    20:00 +24°C° 0 mm 1 mps 747 mmHg 71%
    21:00 +23°C° 0 mm 2 mps 747 mmHg 75%
    22:00 +21°C° 0 mm 2 mps 747 mmHg 77%
    23:00 +21°C° 0 mm 2 mps 747 mmHg 79%

    Tomorrow, 22 August, Thursday

    Time Temperature Precipitation Wind Pressure Humidity
    00:00 +20°C° 0 mm 2 mps 747 mmHg 81%
    01:00 +20°C° 0 mm 2 mps 747 mmHg 83%
    02:00 +20°C° 0 mm 2 mps 747 mmHg 84%
    03:00 +19°C° 0 mm 2 mps 747 mmHg 85%
    04:00 +19°C° 0 mm 2 mps 746 mmHg 85%
    05:00 +20°C° 0 mm 1 mps 746 mmHg 86%
    06:00 +20°C° 0 mm 1 mps 746 mmHg 87%
    07:00 +21°C° 0 mm 1 mps 746 mmHg 81%
    08:00 +23°C° 0 mm 1 mps 746 mmHg 75%
    09:00 +24°C° 0 mm 1 mps 746 mmHg 70%
    10:00 +25°C° 0 mm 1 mps 746 mmHg 66%
    11:00 +27°C° 0 mm 1 mps 746 mmHg 62%
    12:00 +28°C° 0 mm 1 mps 745 mmHg 58%
    13:00 +28°C° 0 mm 1 mps 745 mmHg 56%
    14:00 +28°C° 0 mm 1 mps 745 mmHg 54%
    15:00 +29°C° 0 mm 1 mps 745 mmHg 53%
    16:00 +28°C° 0.4 mm 2 mps 745 mmHg 59%
    17:00 +27°C° 0.4 mm 2 mps 745 mmHg 66%
    18:00 +26°C° 0.4 mm 3 mps 745 mmHg 73%
    19:00 +23°C° 0.4 mm 4 mps 746 mmHg 79%
    20:00 +21°C° 0.4 mm 5 mps 746 mmHg 85%
    21:00 +19°C° 0.4 mm 6 mps 746 mmHg 91%
    22:00 +17°C° 0 mm 5 mps 747 mmHg 91%
    23:00 +17°C° 0 mm 5 mps 747 mmHg 91%

    Day after tomorrow, 23 August, Friday

    Time Temperature Precipitation Wind Pressure Humidity
    00:00 +16°C° 0 mm 5 mps 747 mmHg 91%
    01:00 +15°C° 0 mm 5 mps 747 mmHg 90%
    02:00 +15°C° 0 mm 5 mps 748 mmHg 90%
    03:00 +14°C° 0 mm 5 mps 748 mmHg 90%
    04:00 +14°C° 0 mm 4 mps 748 mmHg 91%
    05:00 +14°C° 0 mm 4 mps 748 mmHg 92%
    06:00 +13°C° 0 mm 4 mps 748 mmHg 92%
    07:00 +14°C° 0 mm 4 mps 749 mmHg 87%
    08:00 +16°C° 0 mm 5 mps 749 mmHg 82%
    09:00 +17°C° 0 mm 5 mps 749 mmHg 77%
    10:00 +19°C° 0 mm 5 mps 749 mmHg 72%
    11:00 +20°C° 0 mm 5 mps 749 mmHg 67%
    12:00 +21°C° 0 mm 5 mps 749 mmHg 62%
    13:00 +21°C° 0 mm 5 mps 749 mmHg 61%
    14:00 +22°C° 0 mm 5 mps 749 mmHg 60%
    15:00 +22°C° 0 mm 4 mps 749 mmHg 59%
    16:00 +21°C° 0 mm 4 mps 749 mmHg 63%
    17:00 +21°C° 0 mm 4 mps 749 mmHg 67%
    18:00 +20°C° 0 mm 3 mps 749 mmHg 71%
    19:00 +19°C° 0 mm 3 mps 749 mmHg 73%
    20:00 +18°C° 0 mm 3 mps 749 mmHg 76%
    21:00 +16°C° 0 mm 3 mps 749 mmHg 78%
    22:00 +16°C° 0 mm 2 mps 749 mmHg 78%
    23:00 +15°C° 0 mm 2 mps 749 mmHg 78%

    24 August, Saturday

    Time Temperature Precipitation Wind Pressure Humidity
    00:00 +15°C° 0 mm 2 mps 749 mmHg 78%
    01:00 +14°C° 0 mm 2 mps 750 mmHg 78%
    02:00 +14°C° 0 mm 2 mps 750 mmHg 79%
    03:00 +14°C° 0 mm 2 mps 750 mmHg 80%
    04:00 +13°C° 0 mm 2 mps 750 mmHg 81%
    05:00 +13°C° 0 mm 2 mps 750 mmHg 82%
    06:00 +13°C° 0 mm 2 mps 750 mmHg 83%
    07:00 +15°C° 0 mm 2 mps 750 mmHg 78%
    08:00 +17°C° 0 mm 2 mps 750 mmHg 73%
    09:00 +19°C° 0 mm 2 mps 750 mmHg 67%
    10:00 +21°C° 0 mm 1 mps 750 mmHg 62%
    11:00 +22°C° 0 mm 1 mps 750 mmHg 56%
    12:00 +23°C° 0 mm 1 mps 750 mmHg 51%
    13:00 +23°C° 0 mm 1 mps 750 mmHg 49%
    14:00 +24°C° 0 mm 1 mps 749 mmHg 47%
    15:00 +24°C° 0 mm 1 mps 749 mmHg 45%
    16:00 +24°C° 0 mm 1 mps 749 mmHg 49%
    17:00 +23°C° 0 mm 1 mps 748 mmHg 54%
    18:00 +23°C° 0 mm 1 mps 748 mmHg 58%
    19:00 +21°C° 0 mm 1 mps 748 mmHg 61%
    20:00 +19°C° 0 mm 1 mps 748 mmHg 64%
    21:00 +18°C° 0 mm 1 mps 748 mmHg 67%
    22:00 +16°C° 0 mm 1 mps 748 mmHg 68%
    23:00 +16°C° 0 mm 1 mps 748 mmHg 69%

    25 August, Sunday

    Time Temperature Precipitation Wind Pressure Humidity
    00:00 +15°C° 0 mm 0 mps 748 mmHg 70%
    01:00 +15°C° 0 mm 1 mps 748 mmHg 71%
    02:00 +15°C° 0 mm 1 mps 747 mmHg 71%
    03:00 +15°C° 0 mm 1 mps 747 mmHg 72%
    04:00 +14°C° 0 mm 1 mps 747 mmHg 74%
    05:00 +14°C° 0 mm 2 mps 747 mmHg 76%
    06:00 +14°C° 0 mm 2 mps 747 mmHg 79%
    07:00 +15°C° 0 mm 2 mps 747 mmHg 75%
    08:00 +17°C° 0 mm 2 mps 747 mmHg 72%
    09:00 +19°C° 0 mm 2 mps 747 mmHg 68%
    10:00 +20°C° 0 mm 3 mps 747 mmHg 64%
    11:00 +21°C° 0 mm 3 mps 747 mmHg 60%
    12:00 +22°C° 0 mm 3 mps 747 mmHg 55%
    13:00 +24°C° 0 mm 3 mps 746 mmHg 55%
    14:00 +23°C° 0 mm 4 mps 746 mmHg 55%
    15:00 +23°C° 0 mm 4 mps 746 mmHg 54%
    16:00 +23°C° 0.1 mm 4 mps 746 mmHg 60%
    17:00 +22°C° 0.1 mm 3 mps 746 mmHg 65%
    18:00 +21°C° 0.1 mm 3 mps 746 mmHg 71%
    19:00 +20°C° 0 mm 3 mps 746 mmHg 77%
    20:00 +18°C° 0 mm 3 mps 747 mmHg 83%
    21:00 +17°C° 0 mm 3 mps 747 mmHg 89%
    22:00 +16°C° 0 mm 3 mps 747 mmHg 88%
    23:00 +14°C° 0 mm 3 mps 748 mmHg 88%

    26 August, Monday

    Time Temperature Precipitation Wind Pressure Humidity
    00:00 +13°C° 0 mm 3 mps 748 mmHg 87%
    01:00 +13°C° 0 mm 3 mps 748 mmHg 89%
    02:00 +12°C° 0 mm 3 mps 749 mmHg 90%
    03:00 +11°C° 0 mm 3 mps 749 mmHg 92%
    04:00 +11°C° 0 mm 3 mps 749 mmHg 93%
    05:00 +11°C° 0 mm 3 mps 749 mmHg 94%
    06:00 +10°C° 0 mm 3 mps 749 mmHg 95%
    07:00 +12°C° 0 mm 3 mps 750 mmHg 89%
    08:00 +13°C° 0 mm 3 mps 750 mmHg 83%
    09:00 +14°C° 0 mm 4 mps 751 mmHg 77%
    10:00 +17°C° 0 mm 3 mps 751 mmHg 70%
    11:00 +18°C° 0 mm 3 mps 751 mmHg 63%
    12:00 +19°C° 0 mm 3 mps 751 mmHg 55%
    13:00 +19°C° 0 mm 3 mps 751 mmHg 53%
    14:00 +20°C° 0 mm 3 mps 751 mmHg 51%
    15:00 +20°C° 0 mm 2 mps 750 mmHg 48%
    16:00 +19°C° 0 mm 2 mps 750 mmHg 53%
    17:00 +19°C° 0 mm 2 mps 750 mmHg 57%
    18:00 +18°C° 0 mm 2 mps 750 mmHg 61%
    19:00 +17°C° 0 mm 2 mps 750 mmHg 65%
    20:00 +15°C° 0 mm 2 mps 750 mmHg 69%
    21:00 +14°C° 0 mm 2 mps 750 mmHg 73%
    22:00 +13°C° 0 mm 2 mps 750 mmHg 74%
    23:00 +13°C° 0 mm 2 mps 750 mmHg 76%
    Show more